GEFSGL_con_probscp_366.txt.gz
Probability
8 8 10 12 13 13 14 13 10 8 9 9 7 6 6 6 6 6 6 5 4 4 4 4 5 7 9 10 9 8 7 6 5 4 2 0 0 0 0 0 0 0 0
9 9 10 12 13 14 14 13 10 8 9 9 7 6 6 6 6 6 6 6 6 5 4 4 5 6 8 10 10 9 9 8 7 5 2 0 0 0 0 0 0 0 0
10 10 11 11 12 13 13 13 10 8 8 8 7 6 6 6 6 6 6 6 6 6 6 5 5 5 6 7 8 9 9 9 9 7 4 1 0 0 0 0 0 0 0
9 10 11 10 10 11 11 11 9 8 8 7 7 6 6 6 6 6 6 6 6 6 5 5 4 4 4 4 5 6 8 9 10 9 5 2 0 0 0 0 0 0 0
10 10 10 9 8 9 9 9 8 7 7 7 6 6 6 6 5 4 4 5 5 5 5 5 5 5 4 3 2 3 6 8 9 9 7 4 2 0 0 0 0 0 0
13 12 10 8 7 6 6 6 6 5 5 6 6 5 5 4 3 2 3 5 6 6 6 6 6 6 5 2 1 1 2 5 6 7 8 6 4 2 1 0 0 0 0
14 12 10 8 7 5 4 4 4 3 3 4 4 4 3 3 1 1 2 5 7 7 7 7 7 7 6 4 2 1 1 2 3 5 6 7 6 4 3 2 1 0 0
12 11 11 9 7 5 5 4 3 3 2 3 3 3 3 1 0 0 1 3 6 8 8 8 8 7 6 5 5 4 2 1 2 3 4 6 5 4 5 4 3 1 0
11 11 11 9 7 6 6 5 4 3 2 3 3 3 2 1 0 0 0 2 5 7 8 7 5 4 3 3 4 5 4 2 2 2 3 4 4 3 3 4 4 2 1
10 11 10 8 7 7 7 6 5 4 3 4 3 2 1 0 0 0 0 1 3 6 6 4 2 1 1 1 2 4 4 3 3 3 3 4 4 4 3 4 5 4 2
12 11 9 7 6 6 8 8 7 6 6 5 3 1 0 0 0 0 0 0 1 2 2 2 1 1 0 0 1 2 2 3 3 3 4 4 5 5 5 4 4 4 3
13 11 8 6 5 5 7 8 7 7 6 4 2 0 0 0 0 0 0 0 0 0 0 1 1 1 0 0 0 1 1 1 3 3 3 3 4 5 6 5 4 4 4
11 9 7 6 5 5 5 5 6 6 5 3 2 1 1 1 1 1 1 0 0 0 1 1 0 0 0 0 0 0 0 1 2 3 3 2 3 5 6 6 6 5 5
8 7 7 8 8 7 5 4 4 5 4 3 3 3 2 2 2 2 2 1 1 0 1 1 1 1 0 0 0 0 0 1 2 2 2 1 3 5 6 6 6 4 3
8 7 7 8 8 9 7 4 3 4 3 2 3 3 3 3 2 2 2 2 1 0 0 1 2 1 0 0 0 0 0 0 1 1 1 1 2 4 6 6 5 3 1
10 8 7 7 8 9 8 5 2 1 1 1 1 2 2 1 1 0 1 1 1 0 0 1 1 1 1 1 1 0 0 0 0 0 0 1 1 2 4 5 4 3 2
9 8 7 8 8 8 7 5 3 2 1 0 0 1 1 0 0 0 0 0 0 0 0 1 2 2 2 2 2 1 0 0 0 0 0 0 0 1 2 3 3 2 2
7 7 7 7 7 7 7 6 6 4 2 1 0 0 0 0 0 0 0 0 0 0 1 2 3 3 3 3 2 1 0 0 0 0 0 0 0 0 1 1 1 1 1
5 5 6 6 6 6 6 6 6 5 3 1 0 0 0 0 0 0 0 1 1 1 1 2 3 3 3 3 1 0 0 0 0 0 0 0 0 0 0 0 1 0 0
4 4 5 4 4 5 6 6 6 5 2 0 0 0 0 0 0 0 0 1 2 2 1 1 2 3 3 2 1 0 0 0 0 0 0 0 0 0 0 0 0 0 0
4 5 5 4 4 4 4 4 4 4 2 1 0 0 0 0 0 0 0 0 1 2 2 2 3 3 3 2 1 0 0 0 0 0 0 0 0 0 0 0 0 0 0
4 5 6 5 4 4 3 3 3 3 3 2 1 0 0 0 0 0 0 0 0 1 2 2 2 2 1 1 0 0 0 0 0 0 0 0 0 0 0 0 0 0 0
4 4 5 5 5 4 3 3 3 3 3 2 1 0 0 0 0 0 0 0 0 0 1 1 1 1 0 0 0 0 0 0 0 0 0 0 0 0 0 0 0 0 0
4 4 4 5 6 5 4 4 5 5 4 3 1 0 0 0 0 0 0 0 0 0 0 0 0 0 0 0 0 0 0 0 0 0 0 0 0 0 0 0 0 0 0
6 6 6 7 7 6 5 5 7 7 5 3 1 0 0 0 0 0 0 0 0 0 0 0 0 0 0 0 0 0 0 0 0 0 0 0 0 0 0 0 0 0 0
6 7 7 7 7 6 5 5 7 7 5 3 2 1 0 0 0 0 0 0 0 0 0 0 0 0 0 0 0 0 0 0 0 0 0 0 0 0 0 0 0 0 0

GEFSGL_con_probscp_372.txt.gz
Probability
16 15 14 14 17 19 21 22 23 23 21 20 18 18 18 18 18 17 14 12 10 10 9 9 11 12 12 13 14 15 16 16 14 14 16 17 14 10 10 9 6 5 5
18 17 16 16 18 19 21 22 24 25 23 20 20 20 19 18 18 16 13 11 10 10 9 9 9 10 11 13 14 15 16 16 14 14 16 16 14 10 9 8 5 4 5
17 16 16 18 19 20 21 23 25 26 25 23 22 21 20 19 18 16 14 13 12 11 10 9 9 9 11 11 11 12 13 13 13 14 15 15 13 10 9 7 5 4 4
16 16 17 19 20 22 23 24 24 24 24 24 23 21 20 19 18 17 16 15 15 14 13 12 11 11 10 8 7 8 9 11 12 14 14 13 12 11 9 8 6 5 4
17 18 19 20 21 22 23 23 23 22 22 21 21 20 19 18 17 16 16 17 17 16 16 15 13 10 8 5 4 5 8 10 12 13 13 11 11 10 10 9 7 6 5
19 20 20 21 21 21 21 21 21 21 20 19 18 17 17 16 13 12 13 15 16 17 17 15 12 9 7 6 4 4 5 8 11 12 12 11 11 11 11 9 8 8 6
22 21 21 21 21 20 20 20 20 20 19 18 17 16 15 13 9 7 8 10 13 15 16 14 11 9 8 8 7 5 4 6 9 12 14 13 14 15 15 12 11 10 9
22 22 21 20 21 21 21 21 21 20 19 17 17 17 15 11 6 4 5 6 9 10 12 12 11 9 9 10 10 8 7 8 8 10 13 13 13 14 15 14 12 11 9
25 25 23 22 22 22 23 22 20 20 18 16 15 15 13 9 4 2 3 5 7 7 9 9 8 8 8 8 10 11 11 10 9 8 9 9 8 8 10 13 12 9 8
27 28 27 26 23 21 21 21 20 19 16 13 11 10 9 7 4 1 2 5 6 7 7 6 5 4 4 5 8 11 11 10 9 7 6 6 5 4 6 10 12 10 8
22 24 25 25 23 21 21 22 21 17 13 11 9 8 7 6 4 2 2 4 6 6 6 5 4 2 1 2 4 6 6 7 7 7 7 6 6 5 6 8 11 12 11
16 16 17 18 19 19 20 21 19 16 12 10 10 9 9 7 6 4 2 2 4 6 6 5 3 1 0 0 1 1 1 2 4 5 5 5 6 5 5 7 9 12 12
13 12 11 12 14 16 17 17 16 13 11 9 9 10 10 8 7 5 2 1 2 4 5 3 1 0 0 0 0 0 0 1 3 3 4 5 5 5 5 6 7 9 9
14 12 9 9 11 13 15 14 12 10 8 8 8 9 9 8 7 5 3 2 2 3 4 3 1 1 1 1 1 1 1 2 3 4 4 5 5 5 5 5 6 6 5
15 11 8 8 10 12 13 12 10 8 7 7 8 8 8 7 5 3 3 2 2 3 5 5 4 3 3 2 2 2 3 3 3 3 4 4 4 4 4 4 5 4 4
13 11 9 9 9 10 10 10 9 7 5 5 5 5 5 4 2 1 1 1 1 3 5 6 6 5 4 3 3 3 3 3 3 3 3 3 3 3 3 4 4 4 4
10 10 10 10 9 8 8 9 9 7 4 3 2 2 2 1 0 0 0 0 0 1 4 6 6 6 4 3 3 3 3 3 3 3 3 3 3 3 3 4 5 6 6
11 10 10 9 8 7 7 8 10 9 7 6 4 1 0 0 0 0 0 0 1 2 4 5 6 6 4 3 3 3 3 3 3 3 3 3 3 3 3 3 5 6 6
10 9 7 6 7 7 7 7 8 9 10 9 8 4 2 1 1 1 0 1 2 3 4 5 6 6 5 4 4 4 3 3 3 3 3 3 3 3 3 3 3 3 3
9 7 4 4 5 6 6 6 7 9 10 10 9 7 4 3 3 3 2 2 3 3 4 5 6 7 6 6 6 5 4 3 3 3 3 3 3 3 4 4 2 1 1
6 4 2 2 3 4 6 7 8 9 10 10 10 8 5 5 6 6 5 4 4 3 3 4 6 8 8 7 7 6 4 3 3 3 3 3 3 3 4 4 3 1 0
4 3 2 2 3 4 5 7 9 10 10 10 10 8 6 7 8 8 7 6 5 4 4 4 5 7 7 7 6 5 4 3 3 3 3 3 3 2 3 3 3 1 0
5 4 3 4 5 5 6 6 8 10 11 10 10 9 8 9 9 10 9 8 7 6 5 5 5 5 6 6 5 4 3 3 3 3 3 3 1 1 1 2 2 1 0
9 8 7 7 7 7 6 6 8 9 10 10 10 10 11 11 11 12 11 10 9 8 7 6 6 5 4 4 3 2 2 2 2 2 2 2 1 0 0 1 1 1 0
14 12 10 9 9 8 7 7 8 9 10 10 10 11 12 13 13 13 12 11 10 9 7 7 7 5 3 2 1 1 1 1 1 1 1 1 0 0 0 0 0 0 0
15 13 11 11 10 9 7 7 8 9 10 10 11 12 13 14 14 13 12 10 10 9 7 6 6 5 3 2 1 0 0 0 0 0 1 1 1 1 1 1 0 0 0

GEFSGL_con_probscp_378.txt.gz
Probability
31 32 32 33 31 29 27 27 29 30 29 28 27 28 30 33 34 32 30 27 23 21 20 18 18 18 16 15 15 17 18 15 11 9 9 10 11 9 6 4 3 2 3
29 30 30 31 29 27 27 28 29 29 29 30 29 29 31 34 33 31 29 27 24 22 21 20 19 18 17 16 15 15 15 15 12 9 9 10 10 9 7 5 3 2 2
25 27 28 27 26 26 27 30 30 29 29 30 30 30 33 34 31 29 28 25 23 23 22 20 18 17 16 16 16 14 12 11 10 8 8 10 11 9 8 6 4 3 2
25 26 26 26 26 28 30 32 32 30 29 30 30 32 33 32 28 26 25 23 22 23 22 19 16 15 14 14 15 15 12 9 8 7 7 9 10 9 7 6 5 5 4
29 29 29 29 30 33 35 35 34 31 29 30 31 31 31 28 25 23 22 22 22 23 21 18 15 13 12 11 12 13 13 10 8 7 7 7 8 9 8 6 5 5 5
35 33 32 32 34 37 38 37 35 32 30 30 30 30 27 23 20 17 17 20 23 22 20 17 14 12 10 8 7 7 9 9 8 7 7 6 7 8 9 7 6 6 6
38 36 35 34 37 38 39 38 36 34 33 31 30 29 26 20 15 11 11 17 20 20 19 17 14 11 9 7 6 5 6 7 7 7 7 6 7 8 8 7 7 7 7
38 38 38 39 39 40 40 40 40 40 38 35 32 31 27 19 11 7 8 13 17 17 17 16 14 11 10 8 6 6 7 7 6 6 6 6 7 7 7 7 7 8 8
38 39 42 42 41 41 42 44 45 44 40 36 34 33 30 20 11 6 7 11 14 14 14 13 12 11 9 6 5 5 7 8 7 6 6 6 6 6 5 6 7 7 7
36 38 40 41 40 39 43 47 47 43 37 33 32 32 30 24 14 7 8 10 11 10 11 10 9 8 6 4 3 5 6 7 7 6 6 6 5 4 4 4 5 6 6
31 33 35 35 33 33 39 46 46 41 34 30 29 29 29 25 16 8 7 8 9 8 8 8 7 5 2 1 1 3 4 5 6 6 6 6 5 4 3 3 4 4 4
27 28 29 29 26 26 35 42 43 39 32 27 26 27 26 22 15 8 5 5 5 6 6 6 5 3 1 0 0 1 2 3 4 6 6 5 4 3 3 3 3 3 3
27 26 26 25 24 26 31 35 36 34 29 25 25 25 24 21 15 9 5 3 2 3 4 3 2 1 0 0 0 0 1 3 4 6 5 4 3 3 2 4 4 3 3
25 25 25 24 24 27 28 28 28 28 27 26 25 24 23 20 15 9 6 5 3 2 2 2 1 1 1 1 1 1 2 4 5 6 5 4 3 2 2 3 5 4 4
23 23 23 24 24 25 25 23 20 20 21 20 20 19 19 16 11 7 5 5 4 4 3 3 4 5 5 4 3 3 4 5 5 5 5 4 3 3 2 3 5 6 5
23 21 20 21 21 21 20 17 13 11 10 10 10 10 10 8 5 3 2 3 3 3 4 5 6 8 7 7 6 6 6 5 5 4 4 3 3 3 3 4 6 7 6
21 19 18 17 17 15 15 14 11 8 6 6 4 3 3 2 1 1 0 1 1 2 3 4 6 8 9 9 8 8 7 7 5 4 3 3 3 3 3 5 7 8 8
19 17 16 16 15 13 12 13 13 10 9 8 5 2 1 0 0 0 0 1 2 3 3 4 6 8 9 9 8 8 9 9 7 4 4 4 3 3 4 5 6 7 8
17 14 12 13 12 11 11 12 13 12 10 9 6 3 2 1 1 1 0 1 2 3 4 5 7 8 9 9 8 8 9 10 8 5 4 4 5 5 5 5 5 5 5
16 11 8 8 8 8 10 11 12 12 11 9 6 5 4 3 3 3 2 2 3 3 3 4 6 8 10 10 10 9 10 10 9 7 5 5 5 5 5 4 3 3 3
15 11 8 7 7 8 8 10 11 12 11 9 8 6 5 5 6 5 5 4 4 3 3 4 5 7 10 12 11 11 11 11 10 9 7 5 4 4 4 3 3 3 3
14 13 11 9 8 9 9 10 11 12 10 9 8 6 5 6 6 7 7 7 6 5 4 4 5 7 10 11 11 10 11 12 11 10 8 7 5 4 3 3 3 3 3
12 12 11 9 8 9 9 10 12 12 10 8 7 6 6 6 7 7 8 9 9 8 7 6 7 8 9 9 9 9 10 10 10 10 9 8 7 4 3 3 3 3 2
9 9 9 9 9 9 10 11 12 13 11 9 7 6 6 7 7 7 9 11 12 11 9 8 8 7 7 7 8 8 8 7 7 8 9 8 6 4 3 3 2 1 1
7 7 7 9 10 10 10 11 13 13 12 10 8 7 7 7 7 7 10 13 13 12 10 8 7 7 6 6 7 6 4 3 3 5 6 6 4 3 2 1 1 0 0
4 4 6 9 11 11 11 12 13 14 14 11 9 7 7 7 7 8 11 14 14 12 10 8 6 6 6 6 6 5 2 1 2 3 4 4 3 2 1 0 0 0 0

GEFSGL_con_probscp_384.txt.gz
Probability
13 13 13 13 12 9 6 5 7 10 12 14 15 14 14 14 13 11 11 11 9 7 5 5 6 7 7 6 6 4 1 0 0 0 0 1 2 2 1 0 0 0 0
15 15 15 13 11 9 6 5 7 9 11 14 15 15 16 16 15 15 15 14 13 10 7 7 7 7 7 6 4 3 2 1 0 0 0 1 1 1 1 0 0 0 0
19 18 17 15 11 8 7 7 9 10 12 14 16 17 19 18 17 16 17 17 16 14 12 10 9 7 7 6 3 3 3 2 1 0 0 0 0 0 0 0 0 0 0
20 19 18 15 11 7 6 8 10 12 13 14 15 16 18 18 16 15 15 16 16 14 13 11 10 8 6 5 3 3 3 3 1 0 0 0 0 0 0 0 0 0 0
19 18 16 13 9 7 7 10 11 12 13 14 14 14 15 16 16 14 14 14 14 13 11 10 9 7 5 4 3 3 4 4 2 1 0 0 0 0 0 0 0 0 0
16 15 12 10 9 10 11 13 13 12 13 14 13 12 12 14 14 13 12 13 12 11 9 8 8 6 5 4 3 3 4 4 3 2 1 2 1 0 0 0 0 0 0
13 12 11 11 11 13 14 14 14 14 15 15 13 12 11 12 11 10 10 11 11 9 8 7 7 6 6 6 5 3 3 3 3 3 3 3 2 1 0 0 0 0 0
12 11 10 11 12 12 13 14 14 15 17 16 14 11 10 9 9 8 8 10 10 8 7 6 6 7 8 8 7 5 2 1 1 3 3 3 3 1 0 0 0 0 0
12 11 9 9 10 11 11 12 13 13 14 14 13 11 10 7 5 4 5 8 9 7 6 6 6 7 7 7 7 6 2 1 1 2 3 3 3 2 1 0 0 0 0
9 9 8 7 8 10 11 12 12 10 10 10 10 10 9 6 3 1 3 7 9 7 5 5 6 6 5 5 5 5 3 2 2 3 3 3 3 2 1 0 0 0 0
6 7 7 7 8 11 12 12 12 11 10 10 8 8 8 5 2 0 1 5 7 6 5 5 6 5 3 2 3 3 2 2 2 2 3 3 3 3 1 0 0 0 0
6 6 7 7 9 12 12 12 12 14 13 11 8 7 6 5 2 1 1 2 4 5 5 5 4 3 1 1 1 1 1 1 1 1 1 2 3 3 2 1 0 0 0
6 6 7 7 8 10 11 10 11 13 14 12 11 10 9 7 3 2 1 1 1 3 3 3 2 1 0 0 0 0 0 0 0 0 0 1 2 3 3 2 1 0 0
4 5 5 5 5 6 7 9 10 11 11 11 12 13 12 10 6 4 3 1 1 1 1 1 0 0 0 0 0 0 0 0 0 0 0 0 1 3 3 2 1 0 0
4 4 4 4 3 2 3 6 7 7 7 7 9 10 10 8 6 4 3 2 2 1 0 0 0 0 0 0 0 0 0 0 0 0 0 0 1 2 3 2 1 0 0
5 4 4 3 2 1 1 3 3 3 2 2 3 3 4 3 2 2 1 1 1 1 0 0 0 0 1 1 1 1 1 0 0 0 0 0 1 2 2 1 0 0 0
6 5 4 3 3 1 1 1 1 1 0 0 0 0 0 0 0 0 0 0 0 0 0 0 0 1 2 2 2 2 2 1 1 1 0 0 0 1 1 0 0 0 0
6 6 5 4 3 2 1 0 0 0 0 0 0 0 0 0 0 0 0 0 0 0 0 0 0 1 2 2 2 2 2 2 2 2 1 0 1 1 1 0 0 0 0
6 6 6 5 5 3 1 0 0 0 0 0 0 0 0 0 0 0 0 0 0 0 0 0 0 0 1 1 1 1 1 3 3 3 2 2 2 2 2 1 1 1 1
6 6 6 5 5 3 1 0 0 0 0 0 0 0 0 0 0 0 0 0 0 0 0 0 0 0 0 0 0 0 1 2 3 3 3 3 3 3 3 3 2 2 2
6 6 6 5 4 2 1 0 0 0 0 0 0 0 0 1 1 1 0 0 0 0 0 0 0 0 0 1 1 1 1 3 3 3 3 3 3 3 3 3 3 3 3
7 7 6 5 4 2 0 0 0 0 0 0 0 0 1 2 3 2 1 1 1 0 0 0 0 1 1 2 2 2 3 3 3 3 3 3 3 3 3 3 3 3 3
9 9 7 5 3 2 1 1 1 0 0 1 1 0 2 4 5 4 2 2 2 1 1 1 1 2 2 3 3 3 3 3 3 3 3 3 3 3 3 3 3 3 3
11 11 8 5 3 3 2 2 1 0 1 2 2 2 3 5 6 5 4 3 2 2 2 1 1 1 2 2 3 3 3 3 3 3 3 3 3 3 3 3 3 3 3
12 11 9 7 5 4 3 2 1 1 1 3 3 3 3 4 4 4 2 1 1 1 1 1 0 0 0 1 2 3 3 3 2 3 3 3 3 3 3 3 3 3 3
11 10 9 8 7 5 2 1 1 1 2 3 3 3 3 3 2 1 1 0 0 0 0 0 0 0 0 0 1 3 3 2 1 2 3 3 3 3 3 3 3 3 3